[[{"header":{"parameterUnit":"m.s-1","parameterCategory":1,"la1":30.2991,"la2":30.254,"lo1":-89.0895,"lo2":-89.0444,"dy":0.0017,"dx":0.0017,"nx":28,"ny":28,"refTime":"2024-06-16T03:00:00:Z","depth":0,"parameterNumber":2,"parameterNumberName":"U-component_of_WINDS"},"data":[0,0,0,0,0,0,0,0,0,0,0,0,0,0,0,0,0,0,0,0,0,0,0,0,0,0,0,0,0,0,0,0,0,0,0,0,0,0,0,0,0,0,0,0,0,0,0,0,0,0,0,0,0,0,0,0,0,0,-4.7711,-4.7711,0,-4.7726,-4.7726,-4.7727,-4.7608,-4.7604,-4.7601,-4.7598,-4.7615,-4.7618,-4.7622,0,0,0,0,0,0,0,0,0,0,0,0,0,-4.7578,-4.7581,-4.7711,-4.7711,-4.7711,-4.7726,-4.7726,-4.7727,-4.7608,-4.7604,-4.76,-4.7596,-4.7613,-4.7618,-4.7622,0,0,0,0,0,0,0,0,0,0,0,0,0,-4.7619,-4.7582,-4.7711,-4.7654,-4.7649,-4.7726,-4.7726,-4.7727,-4.7609,-4.7604,-4.7599,-4.7594,-4.7612,-4.7617,-4.7622,-4.7755,0,0,-4.7639,-4.7641,0,0,0,0,0,0,0,0,-4.7616,-4.7624,-4.7662,-4.7658,-4.7653,-4.766,-4.7685,-4.7736,-4.761,-4.7624,-4.7598,-4.7592,-4.7634,-4.7637,-4.7651,-4.7756,-4.7757,-4.7639,-4.7642,-4.7645,-4.7646,0,0,0,0,0,0,0,-4.7614,-4.7622,-4.7717,-4.7663,-4.7657,-4.7627,-4.7627,-4.7695,-4.7657,-4.7623,-4.7614,-4.7617,-4.763,-4.7646,-4.765,-4.7757,-4.7639,-4.7644,-4.7647,-4.7649,-4.7968,-4.7973,0,0,0,0,0,0,-4.7619,-4.7621,-4.7716,-4.7717,-4.7622,-4.7634,-4.7634,-4.7663,-4.7656,-4.765,-4.7622,-4.7612,-4.7639,-4.7644,-4.7651,-4.7803,-4.7645,-4.765,-4.7653,-4.7963,-4.797,-4.7975,0,0,0,0,0,0,-4.7616,-4.7628,-4.7716,-4.7667,-4.7676,-4.7641,-4.7674,-4.7666,-4.7681,-4.7655,-4.7648,-4.7645,-4.7636,-4.7643,-4.7729,-4.7802,-4.7652,-4.7657,-4.7957,-4.7965,-4.7972,-4.811,0,0,0,0,0,0,-4.7613,-4.7628,-4.7679,-4.7669,-4.7679,-4.7795,-4.7679,-4.7669,-4.7691,-4.7678,-4.7675,-4.767,-4.7632,-4.7722,-4.7735,-4.7806,-4.7661,-4.795,-4.7961,-4.797,-4.8099,-4.8122,-4.8142,0,0,0,0,0,-4.7609,-4.7718,-4.7682,-4.7694,-4.7741,-4.78,-4.7805,-4.776,-4.7697,-4.7747,-4.773,-4.767,-4.7792,-4.7732,-4.7745,-4.782,-4.7945,-4.7958,-4.7969,-4.809,-4.8118,-4.8141,0,0,0,0,0,0,-4.7739,-4.7716,-4.7676,-4.7785,-4.7795,-4.7779,-4.7841,-4.7791,-4.782,-4.7807,-4.7749,-4.775,-4.7845,-4.7841,-4.7774,-4.7946,-4.7858,-4.7873,-4.7945,-4.7971,-4.7992,-4.799,-4.7666,0,0,0,0,0,-4.778,-4.7829,-4.7807,-4.7906,-4.7912,-4.7876,-4.79,-4.7864,-4.7872,-4.7876,-4.7865,-4.7875,-4.7915,-4.7943,-4.7979,-4.8099,-4.8095,-4.8156,-4.8177,-4.8195,-4.8208,-4.8267,-4.8294,-4.8014,-4.8014,-4.8014,0,0,-4.7866,-4.786,-4.7895,-4.7931,-4.7935,-4.7986,-4.7881,-4.7941,-4.7977,-4.7885,-4.7964,-4.7957,-4.7965,-4.8067,-4.8112,-4.8067,-4.8284,-4.821,-4.8224,-4.8228,-4.8282,-4.8309,-4.8332,-4.8022,-4.8021,-4.802,0,0,-4.8049,-4.805,-4.813,-4.8136,-4.8141,-4.8116,-4.8136,-4.8127,-4.8118,-4.8197,-4.8128,-4.8171,-4.8243,-4.825,-4.8263,-4.8446,-4.8391,-4.846,-4.857,-4.8628,-4.865,-4.867,-4.8732,-4.8755,-4.8473,-4.8474,-4.8474,0,-4.8155,-4.823,-4.8179,-4.8242,-4.8259,-4.8177,-4.8257,-4.8264,-4.8282,-4.8296,-4.8245,-4.8331,-4.8331,-4.8432,-4.8476,-4.8491,-4.851,-4.8459,-4.8651,-4.867,-4.8687,-4.8746,-4.877,-4.8482,-4.8481,-4.848,-4.8479,0,-4.8358,-4.8411,-4.8475,-4.8493,-4.8517,-4.8589,-4.8548,-4.8579,-4.8541,-4.8521,-4.8601,-4.8597,-4.863,-4.8651,-4.8616,-4.8747,-4.8719,-4.8661,-4.8571,-4.8723,-4.8777,-4.8799,-4.8493,-4.849,-4.8488,-4.8486,0,0,-4.8624,-4.861,-4.8634,-4.864,-4.8639,-4.8678,-4.8746,-4.8776,-4.8803,-4.8818,-4.8871,-4.8933,-4.8878,-4.8893,-4.8857,-4.8909,-4.905,-4.8844,-4.8843,-4.888,-4.9192,-4.9233,-4.9261,-4.9014,-4.9019,-4.9022,-4.919,0,-4.8799,-4.8912,-4.8867,-4.8984,-4.903,-4.8951,-4.9009,-4.9015,-4.8998,-4.9034,-4.9016,-4.9059,-4.8985,-4.8993,-4.9041,-4.9023,-4.9112,-4.9011,-4.9062,-4.9065,-4.906,-4.9289,-4.9334,-4.9493,-4.9211,-4.9215,-4.9218,0,-4.9019,-4.9041,-4.9162,-4.9149,-4.9167,-4.922,-4.9243,-4.9279,-4.9284,-4.9267,-4.9283,-4.9235,-4.9298,-4.921,-4.9296,-4.9228,-4.9247,-4.9241,-4.9246,-4.9247,-4.9149,-4.9294,-4.9543,-4.9566,-4.9251,-4.9248,-4.9246,0,-4.9197,-4.9257,-4.9335,-4.9343,-4.9332,-4.937,-4.9368,-4.9366,-4.9387,-4.9407,-4.9419,-4.9447,-4.9462,-4.9485,-4.9445,-4.9385,-4.9536,-4.9445,-4.9523,-4.9524,-4.9557,-4.9555,-4.9809,-4.9573,-4.9573,-4.9573,-4.9572,0,-4.9396,-4.9473,-4.9414,-4.9463,-4.9545,-4.9492,-4.9575,-4.9564,-4.9563,-4.9607,-4.9543,-4.9585,-4.9531,-4.9569,-4.9538,-4.9612,-4.9621,-4.9608,-4.9599,-4.9613,-4.9614,-4.9622,-4.9609,-4.9579,-4.9577,-4.9576,-4.9575,0,-4.9608,-4.9573,-4.9653,-4.9635,-4.9632,-4.9693,-4.9677,-4.9721,-4.9698,-4.9755,-4.9765,-4.973,-4.9771,-4.9734,-4.9773,-4.9752,-4.9851,-4.9827,-4.9849,-4.9841,-4.992,-4.9912,-5.0187,-5.0219,-4.9965,-4.9968,-4.997,0,-4.9737,-4.9793,-4.978,-4.9804,-4.9805,-4.9845,-4.9865,-4.9815,-4.9838,-4.9845,-4.9887,-4.9922,-4.9946,-5.0015,-4.9993,-5.0022,-4.9997,-5.0091,-5.0001,-5.0012,-4.9995,-4.9991,-4.9995,-5.0109,-5.0112,-5.0114,-5.0116,0,-4.9968,-4.9946,-4.9976,-5.0,-5.0024,-5.0041,-5.0052,-5.0076,-5.0024,-5.0053,-5.0093,-5.0112,-5.015,-5.0185,-5.0207,-5.0203,-5.0151,-5.0145,-5.0164,-5.0178,-5.0187,-5.018,-4.9896,-5.0139,-5.0136,-5.0135,-5.0134,-5.0133,-5.014,-5.0184,-5.0181,-5.0216,-5.0219,-5.023,-5.0269,-5.0251,-5.0282,-5.0309,-5.0278,-5.0326,-5.0326,-5.0349,-5.0352,-5.0389,-5.0349,-5.0378,-5.0384,-5.0391,-5.0401,-5.0183,-5.0393,-5.0392,-5.0392,-5.0391,-5.0391,0,-5.0364,-5.0358,-5.039,-5.0407,-5.0434,-5.0381,-5.039,-5.0416,-5.0459,-5.0463,-5.0488,-5.0533,-5.0565,-5.0545,-5.0573,-5.0606,-5.0582,-5.0615,-5.061,-5.061,-5.0437,-5.0416,-5.0633,-5.0633,-5.0633,-5.0633,-5.0633,-5.0633,-5.0484,-5.0556,-5.0534,-5.0606,-5.0599,-5.0644,-5.0654,-5.0663,-5.0666,-5.0718,-5.0744,-5.073,-5.0724,-5.0751,-5.0778,-5.0771,-5.0783,-5.0824,-5.0808,-5.0647,-5.0623,-5.06,-5.058,-5.0827,-5.0828,-5.0978,-5.0979,-5.098]},{"header":{"parameterUnit":"m.s-1","parameterCategory":1,"la1":30.2991,"la2":30.254,"lo1":-89.0895,"lo2":-89.0444,"dy":0.0017,"dx":0.0017,"nx":28,"ny":28,"refTime":"2024-06-16T03:00:00:Z","depth":0,"parameterNumber":3,"parameterNumberName":"V-component_of_WINDS"},"data":[0,0,0,0,0,0,0,0,0,0,0,0,0,0,0,0,0,0,0,0,0,0,0,0,0,0,0,0,0,0,0,0,0,0,0,0,0,0,0,0,0,0,0,0,0,0,0,0,0,0,0,0,0,0,0,0,0,0,1.3907,1.3908,0,1.3958,1.3959,1.3959,1.3889,1.3887,1.3884,1.3882,1.3934,1.3938,1.3942,0,0,0,0,0,0,0,0,0,0,0,0,0,1.3751,1.3754,1.3907,1.3908,1.3908,1.3958,1.3959,1.3959,1.389,1.3887,1.3884,1.3881,1.3933,1.3937,1.3942,0,0,0,0,0,0,0,0,0,0,0,0,0,1.3812,1.3755,1.3907,1.388,1.3878,1.3958,1.3959,1.3959,1.3891,1.3887,1.3883,1.388,1.3932,1.3937,1.3943,1.4052,0,0,1.396,1.3962,0,0,0,0,0,0,0,0,1.3809,1.3818,1.3883,1.3882,1.388,1.3914,1.3923,1.399,1.3891,1.3886,1.3882,1.3878,1.393,1.3936,1.3954,1.4054,1.4056,1.396,1.3963,1.3966,1.3967,0,0,0,0,0,0,0,1.3805,1.3815,1.3927,1.3884,1.3882,1.3865,1.387,1.3935,1.3928,1.3886,1.3881,1.3888,1.3929,1.3948,1.3954,1.4057,1.396,1.3965,1.3968,1.397,1.4251,1.4255,0,0,0,0,0,0,1.3803,1.3812,1.3926,1.3929,1.3834,1.3871,1.3876,1.3906,1.3927,1.3927,1.3891,1.3885,1.3941,1.3948,1.3956,1.4086,1.3966,1.3971,1.3974,1.4247,1.4252,1.4256,0,0,0,0,0,0,1.38,1.3814,1.3924,1.3869,1.3882,1.3878,1.3912,1.3909,1.3929,1.3931,1.393,1.3912,1.3938,1.3948,1.4029,1.4086,1.3973,1.3979,1.4242,1.4248,1.4254,1.4346,0,0,0,0,0,0,1.3796,1.3814,1.3855,1.3871,1.3885,1.3996,1.3916,1.3913,1.3939,1.3931,1.3951,1.3951,1.3936,1.4021,1.4034,1.4092,1.3983,1.4237,1.4245,1.4252,1.4338,1.4354,1.4369,0,0,0,0,0,1.3791,1.3878,1.3857,1.3871,1.3936,1.3999,1.4007,1.3988,1.3944,1.3985,1.3987,1.395,1.4078,1.4029,1.4044,1.4105,1.4233,1.4242,1.4251,1.4331,1.4351,1.4368,0,0,0,0,0,0,1.3869,1.388,1.3856,1.3952,1.3975,1.3987,1.4039,1.401,1.4047,1.4038,1.4013,1.4018,1.4104,1.4112,1.4058,1.4212,1.4148,1.4161,1.4203,1.4223,1.4238,1.4234,1.3987,0,0,0,0,0,1.3898,1.3947,1.3954,1.4037,1.405,1.4043,1.4069,1.4053,1.4076,1.4085,1.4093,1.4117,1.4162,1.4193,1.4235,1.4338,1.4342,1.4387,1.4403,1.4416,1.4427,1.4483,1.4503,1.4286,1.4286,1.4286,0,0,1.3957,1.3969,1.4001,1.4054,1.407,1.4122,1.4052,1.411,1.4149,1.4094,1.4171,1.4178,1.4203,1.4295,1.4337,1.4305,1.4488,1.4427,1.4438,1.4442,1.4495,1.4515,1.4534,1.4293,1.4292,1.4291,0,0,1.4091,1.4105,1.4176,1.4194,1.422,1.4214,1.4232,1.4248,1.4251,1.4327,1.4288,1.4334,1.4413,1.4432,1.4453,1.4596,1.4564,1.4611,1.4692,1.4747,1.4764,1.4779,1.4831,1.485,1.4622,1.4622,1.4622,0,1.4161,1.4238,1.4217,1.4278,1.4303,1.4256,1.4329,1.4347,1.4385,1.4403,1.4367,1.4466,1.4479,1.4576,1.4612,1.4629,1.4649,1.4608,1.4764,1.4778,1.4792,1.4841,1.4861,1.4628,1.4627,1.4627,1.4626,0,1.4324,1.4378,1.4433,1.4471,1.4502,1.4569,1.4557,1.4591,1.4572,1.4571,1.465,1.4665,1.471,1.4731,1.4713,1.4827,1.4806,1.4767,1.4703,1.4819,1.4865,1.4883,1.4636,1.4634,1.4632,1.4631,0,0,1.4509,1.4535,1.4555,1.4572,1.4597,1.4639,1.4704,1.4748,1.4778,1.4806,1.486,1.4928,1.4893,1.4916,1.49,1.4949,1.5063,1.4904,1.4904,1.4933,1.5189,1.5219,1.5241,1.5041,1.5045,1.5048,1.5187,0,1.4644,1.4756,1.4739,1.4847,1.4898,1.4855,1.4912,1.4933,1.4934,1.4977,1.4978,1.5027,1.4976,1.499,1.5036,1.5039,1.5114,1.5029,1.5092,1.5095,1.5087,1.5264,1.5295,1.5426,1.5205,1.5208,1.521,0,1.4816,1.4851,1.4964,1.4982,1.5003,1.5054,1.5094,1.5135,1.5159,1.5157,1.5184,1.5159,1.5225,1.5159,1.5249,1.5192,1.5217,1.5223,1.5227,1.5233,1.516,1.5275,1.5468,1.5488,1.5238,1.5236,1.5234,0,1.494,1.5015,1.5093,1.5109,1.5132,1.5169,1.5181,1.5201,1.5229,1.5264,1.5281,1.5323,1.5346,1.5379,1.5367,1.532,1.5461,1.5394,1.546,1.5461,1.5492,1.549,1.5692,1.5508,1.5507,1.5507,1.5507,0,1.5092,1.5164,1.5149,1.5198,1.5277,1.5256,1.5335,1.5341,1.536,1.5409,1.5375,1.5421,1.5402,1.5448,1.5439,1.5515,1.5526,1.5526,1.5523,1.5529,1.5529,1.5545,1.5536,1.5512,1.5511,1.551,1.5509,0,1.5245,1.5238,1.532,1.5335,1.5341,1.5399,1.5412,1.5457,1.5455,1.5518,1.5531,1.5529,1.5581,1.5572,1.5629,1.5623,1.572,1.5705,1.5712,1.5708,1.5776,1.577,1.5995,1.6024,1.5821,1.5823,1.5824,0,1.5343,1.5397,1.5418,1.5448,1.5463,1.5512,1.554,1.5523,1.5554,1.5586,1.5628,1.5677,1.5715,1.58,1.5804,1.5848,1.5835,1.591,1.5841,1.5846,1.5837,1.5834,1.5839,1.5924,1.5927,1.5929,1.593,0,1.5518,1.5512,1.5554,1.5596,1.5631,1.5663,1.5691,1.5718,1.5703,1.574,1.5793,1.5823,1.5882,1.5931,1.5972,1.5984,1.5956,1.5952,1.597,1.5977,1.5979,1.598,1.575,1.5947,1.5945,1.5944,1.5943,1.5942,1.5646,1.5693,1.5715,1.5764,1.5783,1.5811,1.5855,1.5859,1.5903,1.5949,1.5936,1.5997,1.6021,1.6073,1.609,1.6137,1.6109,1.6135,1.6141,1.6148,1.6157,1.5972,1.6144,1.6144,1.6144,1.6143,1.6143,0,1.582,1.5832,1.5877,1.5919,1.5957,1.5926,1.5957,1.5991,1.6045,1.6069,1.6108,1.6169,1.6217,1.6225,1.6271,1.6307,1.6295,1.632,1.6317,1.632,1.6179,1.6159,1.6329,1.6329,1.6329,1.6329,1.6329,1.6329,1.5915,1.5992,1.5989,1.6076,1.6088,1.6147,1.6167,1.6193,1.6212,1.6283,1.6322,1.6327,1.6345,1.6392,1.6435,1.6436,1.6455,1.6485,1.6481,1.6349,1.633,1.6313,1.6294,1.6489,1.6489,1.6619,1.662,1.6621]}]]